Time,TemperatureF,DewpointF,PressureIn,WindDirection,WindDirectionDegrees,WindSpeedMPH,WindSpeedGustMPH,Humidity,HourlyPrecipIn,Conditions,Clouds,dailyrainin,SolarRadiationWatts/m^2,SoftwareType,DateUTC
2013-01-30 00:01:00,45.4,37.6,29.11,North,4,3.5,3.5,74,0.00,RA,OVC,0.00,0.0,WeatherDisplay:10.37,2013-01-30 00:01:00,
2013-01-30 00:06:00,45.4,37.6,29.11,West,281,4.6,4.6,74,0.00,RA,OVC,0.00,0.0,WeatherDisplay:10.37,2013-01-30 00:06:00,
2013-01-30 00:11:00,45.3,37.5,29.11,NNE,18,3.5,3.5,74,0.00,BKN,OVC,0.00,0.0,WeatherDisplay:10.37,2013-01-30 00:11:00,
2013-01-30 00:16:00,45.3,37.2,29.11,ESE,113,14.0,14.0,73,0.00,BKN,OVC,0.00,0.0,WeatherDisplay:10.37,2013-01-30 00:16:00,
2013-01-30 00:21:00,45.2,37.4,29.12,ENE,65,4.6,4.6,74,0.00,BKN,OVC,0.00,0.0,WeatherDisplay:10.37,2013-01-30 00:21:00,
2013-01-30 00:26:00,45.2,37.4,29.12,SW,228,3.5,3.5,74,0.00,BKN,OVC,0.00,0.0,WeatherDisplay:10.37,2013-01-30 00:26:00,
2013-01-30 00:31:00,45.2,37.1,29.12,ENE,61,10.4,10.4,73,0.00,BKN,OVC,0.00,0.0,WeatherDisplay:10.37,2013-01-30 00:31:00,
2013-01-30 00:36:00,45.2,37.7,29.12,NW,311,2.3,2.3,75,0.00,BKN,OVC,0.00,0.0,WeatherDisplay:10.37,2013-01-30 00:36:00,
2013-01-30 00:41:00,44.9,37.5,29.12,ENE,70,3.5,3.5,75,0.00,BKN,OVC,0.00,0.0,WeatherDisplay:10.37,2013-01-30 00:41:00,
2013-01-30 00:46:00,45.1,38.0,29.12,WSW,246,3.5,3.5,76,0.00,BKN,OVC,0.00,0.0,WeatherDisplay:10.37,2013-01-30 00:46:00,
2013-01-30 00:51:00,45.0,37.9,29.12,SE,124,3.5,3.5,76,0.00,BKN,OVC,0.00,0.0,WeatherDisplay:10.37,2013-01-30 00:51:00,
2013-01-30 00:56:00,44.9,37.8,29.11,NE,47,6.9,6.9,76,0.00,BKN,OVC,0.00,0.0,WeatherDisplay:10.37,2013-01-30 00:56:00,
2013-01-30 01:01:00,45.0,37.9,29.11,West,267,4.6,4.6,76,0.00,SCT,OVC,0.00,0.0,WeatherDisplay:10.37,2013-01-30 01:01:00,
2013-01-30 01:06:00,44.9,37.8,29.12,NW,312,6.9,6.9,76,0.00,SCT,OVC,0.00,0.0,WeatherDisplay:10.37,2013-01-30 01:06:00,
2013-01-30 01:11:00,44.9,37.8,29.12,SSE,161,5.8,5.8,76,0.00,SCT,OVC,0.00,0.0,WeatherDisplay:10.37,2013-01-30 01:11:00,
2013-01-30 01:16:00,45.0,37.6,29.11,NW,307,5.8,5.8,75,0.00,SCT,OVC,0.00,0.0,WeatherDisplay:10.37,2013-01-30 01:16:00,
2013-01-30 01:21:00,45.0,37.6,29.11,North,9,4.6,4.6,75,0.00,SCT,OVC,0.00,0.0,WeatherDisplay:10.37,2013-01-30 01:21:00,
2013-01-30 01:26:00,44.9,37.5,29.11,SW,218,5.0,5.0,75,0.00,SCT,OVC,0.00,0.0,WeatherDisplay:10.37,2013-01-30 01:26:00,
2013-01-30 01:31:00,45.0,37.2,29.12,East,91,6.9,6.9,74,0.00,SCT,OVC,0.00,0.0,WeatherDisplay:10.37,2013-01-30 01:31:00,
2013-01-30 01:36:00,45.0,37.2,29.12,NNW,348,5.0,5.0,74,0.00,SCT,OVC,0.00,0.0,WeatherDisplay:10.37,2013-01-30 01:36:00,
2013-01-30 01:41:00,45.0,37.2,29.12,SW,226,4.6,4.6,74,0.00,SCT,OVC,0.00,0.0,WeatherDisplay:10.37,2013-01-30 01:41:00,
2013-01-30 01:46:00,45.0,37.2,29.12,ESE,108,3.5,3.5,74,0.00,SCT,OVC,0.00,0.0,WeatherDisplay:10.37,2013-01-30 01:46:00,
2013-01-30 01:51:00,44.9,37.1,29.12,East,81,4.6,4.6,74,0.00,SCT,OVC,0.00,0.0,WeatherDisplay:10.37,2013-01-30 01:51:00,
2013-01-30 01:56:00,44.9,37.5,29.12,WNW,302,4.0,4.0,75,0.00,SCT,OVC,0.00,0.0,WeatherDisplay:10.37,2013-01-30 01:56:00,
2013-01-30 02:01:00,44.9,37.1,29.12,NNW,335,5.8,5.8,74,0.00,BKN,OVC,0.00,0.0,WeatherDisplay:10.37,2013-01-30 02:01:00,
2013-01-30 02:07:00,44.8,37.4,29.12,East,92,6.0,6.0,75,0.00,BKN,OVC,0.00,0.0,WeatherDisplay:10.37,2013-01-30 02:07:00,
2013-01-30 02:12:00,44.7,37.3,29.12,NNW,328,5.8,5.8,75,0.00,BKN,OVC,0.00,0.0,WeatherDisplay:10.37,2013-01-30 02:12:00,
2013-01-30 02:17:00,44.6,37.5,29.12,ENE,67,3.5,3.5,76,0.00,BKN,OVC,0.00,0.0,WeatherDisplay:10.37,2013-01-30 02:17:00,
2013-01-30 02:22:00,44.5,37.4,29.12,WNW,287,3.5,3.5,76,0.00,BKN,OVC,0.00,0.0,WeatherDisplay:10.37,2013-01-30 02:22:00,
2013-01-30 02:27:00,44.5,37.4,29.12,WSW,243,4.0,4.0,76,0.00,BKN,OVC,0.00,0.0,WeatherDisplay:10.37,2013-01-30 02:27:00,
2013-01-30 02:32:00,44.5,37.7,29.13,ENE,64,4.6,4.6,77,0.00,BKN,OVC,0.00,0.0,WeatherDisplay:10.37,2013-01-30 02:32:00,
2013-01-30 02:37:00,44.5,37.7,29.13,ESE,116,5.8,5.8,77,0.00,BKN,OVC,0.00,0.0,WeatherDisplay:10.37,2013-01-30 02:37:00,
2013-01-30 02:42:00,44.5,37.7,29.13,WSW,249,3.5,3.5,77,0.00,BKN,OVC,0.00,0.0,WeatherDisplay:10.37,2013-01-30 02:42:00,
2013-01-30 02:47:00,44.5,38.1,29.13,SSW,203,3.5,3.5,78,0.00,BKN,OVC,0.00,0.0,WeatherDisplay:10.37,2013-01-30 02:47:00,
2013-01-30 02:52:00,44.7,37.9,29.13,ESE,110,4.6,4.6,77,0.00,BKN,OVC,0.00,0.0,WeatherDisplay:10.37,2013-01-30 02:52:00,
2013-01-30 02:57:00,44.8,37.7,29.13,NNE,18,4.0,4.0,76,0.00,BKN,OVC,0.00,0.0,WeatherDisplay:10.37,2013-01-30 02:57:00,
2013-01-30 03:02:00,44.8,38.0,29.13,NNE,16,3.5,3.5,77,0.00,BKN,OVC,0.00,0.0,WeatherDisplay:10.37,2013-01-30 03:02:00,
2013-01-30 03:07:00,44.8,38.0,29.13,South,169,3.5,3.5,77,0.00,BKN,OVC,0.00,0.0,WeatherDisplay:10.37,2013-01-30 03:07:00,
2013-01-30 03:12:00,44.8,38.0,29.13,SW,233,4.6,4.6,77,0.00,BKN,OVC,0.00,0.0,WeatherDisplay:10.37,2013-01-30 03:12:00,
2013-01-30 03:17:00,44.9,37.8,29.13,NNW,328,6.9,6.9,76,0.00,BKN,OVC,0.00,0.0,WeatherDisplay:10.37,2013-01-30 03:17:00,
2013-01-30 03:22:00,44.9,38.1,29.13,SW,229,5.0,5.0,77,0.00,BKN,OVC,0.00,0.0,WeatherDisplay:10.37,2013-01-30 03:22:00,
2013-01-30 03:27:00,44.7,37.9,29.13,West,281,4.0,4.0,77,0.00,BKN,OVC,0.00,0.0,WeatherDisplay:10.37,2013-01-30 03:27:00,
2013-01-30 03:32:00,44.7,37.6,29.13,NW,309,3.5,3.5,76,0.00,SCT,OVC,0.00,0.0,WeatherDisplay:10.37,2013-01-30 03:32:00,
2013-01-30 03:37:00,44.6,37.5,29.13,ENE,75,8.1,8.1,76,0.00,SCT,OVC,0.00,0.0,WeatherDisplay:10.37,2013-01-30 03:37:00,
2013-01-30 03:42:00,44.6,37.8,29.12,SE,139,6.9,6.9,77,0.00,SCT,OVC,0.00,0.0,WeatherDisplay:10.37,2013-01-30 03:42:00,
2013-01-30 03:47:00,44.6,37.8,29.12,ESE,113,3.5,3.5,77,0.00,SCT,OVC,0.00,0.0,WeatherDisplay:10.37,2013-01-30 03:47:00,
2013-01-30 03:52:00,44.5,37.7,29.12,SE,139,4.0,4.0,77,0.00,SCT,OVC,0.00,0.0,WeatherDisplay:10.37,2013-01-30 03:52:00,
2013-01-30 03:57:00,44.4,37.6,29.12,SSE,155,3.5,3.5,77,0.00,SCT,OVC,0.00,0.0,WeatherDisplay:10.37,2013-01-30 03:57:00,
2013-01-30 04:02:00,44.3,37.5,29.12,NNW,345,3.5,3.5,77,0.00,FEW,OVC,0.00,0.0,WeatherDisplay:10.37,2013-01-30 04:02:00,
2013-01-30 04:07:00,44.3,37.5,29.12,North,354,4.6,4.6,77,0.00,FEW,OVC,0.00,0.0,WeatherDisplay:10.37,2013-01-30 04:07:00,
2013-01-30 04:12:00,44.4,38.0,29.12,SW,217,3.5,3.5,78,0.00,FEW,OVC,0.00,0.0,WeatherDisplay:10.37,2013-01-30 04:12:00,
2013-01-30 04:17:00,44.4,37.6,29.12,NNW,346,3.5,3.5,77,0.00,FEW,OVC,0.00,0.0,WeatherDisplay:10.37,2013-01-30 04:17:00,
2013-01-30 04:22:00,44.5,37.7,29.12,ESE,121,3.5,3.5,77,0.00,FEW,OVC,0.00,0.0,WeatherDisplay:10.37,2013-01-30 04:22:00,
2013-01-30 04:27:00,44.5,37.7,29.12,East,79,9.2,9.2,77,0.00,FEW,OVC,0.00,0.0,WeatherDisplay:10.37,2013-01-30 04:27:00,
2013-01-30 04:32:00,44.4,37.6,29.12,ENE,75,4.6,4.6,77,0.00,FEW,OVC,0.00,0.0,WeatherDisplay:10.37,2013-01-30 04:32:00,
2013-01-30 04:37:00,44.3,37.5,29.12,NE,37,5.8,5.8,77,0.00,FEW,OVC,0.00,0.0,WeatherDisplay:10.37,2013-01-30 04:37:00,
2013-01-30 04:42:00,44.3,37.5,29.12,NNW,346,4.6,4.6,77,0.00,FEW,OVC,0.00,0.0,WeatherDisplay:10.37,2013-01-30 04:42:00,
2013-01-30 04:47:00,44.3,37.9,29.12,SW,236,5.0,5.0,78,0.00,FEW,OVC,0.00,0.0,WeatherDisplay:10.37,2013-01-30 04:47:00,
2013-01-30 04:52:00,44.3,37.9,29.12,South,181,5.8,5.8,78,0.00,FEW,OVC,0.00,0.0,WeatherDisplay:10.37,2013-01-30 04:52:00,
2013-01-30 04:57:00,44.2,37.8,29.12,NE,34,8.1,8.1,78,0.00,FEW,OVC,0.00,0.0,WeatherDisplay:10.37,2013-01-30 04:57:00,
2013-01-30 05:00:00,44.2,37.8,29.13,NNE,19,2.0,8.0,78,0.00,FEW,OVC,0.00,0.0,WeatherDisplay:10.37,2013-01-30 05:00:00,
2013-01-30 05:03:00,44.1,37.7,29.12,ENE,60,4.6,4.6,78,0.00,FEW,OVC,0.00,0.0,WeatherDisplay:10.37,2013-01-30 05:03:00,
2013-01-30 05:08:00,44.1,37.7,29.13,NE,46,4.6,4.6,78,0.00,FEW,OVC,0.00,0.0,WeatherDisplay:10.37,2013-01-30 05:08:00,
2013-01-30 05:13:00,44.1,38.0,29.13,NNW,339,3.5,3.5,79,0.00,FEW,OVC,0.00,0.0,WeatherDisplay:10.37,2013-01-30 05:13:00,
2013-01-30 05:18:00,44.1,37.7,29.13,NNE,23,3.5,3.5,78,0.00,FEW,OVC,0.00,0.0,WeatherDisplay:10.37,2013-01-30 05:18:00,
2013-01-30 05:23:00,44.0,37.6,29.13,West,267,3.5,3.5,78,0.00,FEW,OVC,0.00,0.0,WeatherDisplay:10.37,2013-01-30 05:23:00,
2013-01-30 05:28:00,43.9,37.8,29.13,SE,134,4.6,4.6,79,0.00,FEW,OVC,0.00,0.0,WeatherDisplay:10.37,2013-01-30 05:28:00,
2013-01-30 05:33:00,43.7,37.6,29.12,North,5,3.5,3.5,79,0.00,FEW,OVC,0.00,0.0,WeatherDisplay:10.37,2013-01-30 05:33:00,
2013-01-30 05:38:00,43.7,37.6,29.13,SE,127,4.6,4.6,79,0.00,FEW,OVC,0.00,0.0,WeatherDisplay:10.37,2013-01-30 05:38:00,
2013-01-30 05:43:00,43.7,37.6,29.12,ENE,65,4.6,4.6,79,0.00,FEW,OVC,0.00,0.0,WeatherDisplay:10.37,2013-01-30 05:43:00,
2013-01-30 05:48:00,43.5,37.7,29.12,SSE,165,3.5,3.5,80,0.00,FEW,OVC,0.00,0.0,WeatherDisplay:10.37,2013-01-30 05:48:00,
2013-01-30 05:53:00,43.4,37.6,29.12,ENE,74,10.4,10.4,80,0.00,FEW,OVC,0.00,0.0,WeatherDisplay:10.37,2013-01-30 05:53:00,
2013-01-30 05:58:00,43.2,37.4,29.12,ENE,75,3.5,3.5,80,0.00,FEW,OVC,0.00,0.0,WeatherDisplay:10.37,2013-01-30 05:58:00,
2013-01-30 06:03:00,43.2,37.4,29.12,ESE,115,3.5,3.5,80,0.00,SCT,OVC,0.00,0.0,WeatherDisplay:10.37,2013-01-30 06:03:00,
2013-01-30 06:08:00,43.3,37.5,29.13,North,8,3.5,3.5,80,0.00,SCT,OVC,0.00,0.0,WeatherDisplay:10.37,2013-01-30 06:08:00,
2013-01-30 06:13:00,43.3,37.5,29.13,North,350,6.9,6.9,80,0.00,SCT,OVC,0.00,0.0,WeatherDisplay:10.37,2013-01-30 06:13:00,
2013-01-30 06:18:00,43.3,37.5,29.13,SW,225,3.5,3.5,80,0.00,SCT,OVC,0.00,0.0,WeatherDisplay:10.37,2013-01-30 06:18:00,
2013-01-30 06:23:00,43.3,37.5,29.13,NE,41,3.5,3.5,80,0.00,SCT,OVC,0.00,0.0,WeatherDisplay:10.37,2013-01-30 06:23:00,
2013-01-30 06:28:00,43.3,37.5,29.13,SSE,163,3.5,3.5,80,0.00,SCT,OVC,0.00,0.0,WeatherDisplay:10.37,2013-01-30 06:28:00,
2013-01-30 06:33:00,43.3,37.9,29.13,East,88,5.8,5.8,81,0.00,SCT,OVC,0.00,0.0,WeatherDisplay:10.37,2013-01-30 06:33:00,
2013-01-30 06:38:00,43.5,38.1,29.13,NNW,342,3.5,3.5,81,0.00,SCT,OVC,0.00,0.0,WeatherDisplay:10.37,2013-01-30 06:38:00,
2013-01-30 06:43:00,43.6,38.2,29.13,SE,145,3.5,3.5,81,0.00,SCT,OVC,0.00,0.0,WeatherDisplay:10.37,2013-01-30 06:43:00,
2013-01-30 06:48:00,43.6,38.5,29.13,NE,53,3.5,3.5,82,0.00,SCT,OVC,0.00,0.0,WeatherDisplay:10.37,2013-01-30 06:48:00,
2013-01-30 06:53:00,43.5,38.4,29.14,NW,326,5.8,5.8,82,0.00,SCT,OVC,0.00,0.0,WeatherDisplay:10.37,2013-01-30 06:53:00,
2013-01-30 06:58:00,42.7,37.6,29.14,NNW,347,6.9,6.9,82,0.00,SCT,OVC,0.00,0.0,WeatherDisplay:10.37,2013-01-30 06:58:00,
2013-01-30 07:03:00,41.3,37.1,29.14,NNW,335,5.8,5.8,85,0.01,-RA,OVC,0.01,0.0,WeatherDisplay:10.37,2013-01-30 07:03:00,
2013-01-30 07:08:00,40.7,37.1,29.14,NNE,20,3.5,3.5,87,0.02,-RA,OVC,0.02,0.0,WeatherDisplay:10.37,2013-01-30 07:08:00,
2013-01-30 07:13:00,40.4,37.1,29.14,West,281,3.5,3.5,88,0.02,-RA,OVC,0.02,0.0,WeatherDisplay:10.37,2013-01-30 07:13:00,
2013-01-30 07:18:00,40.3,37.0,29.14,West,259,2.3,2.3,88,0.02,-RA,OVC,0.02,0.0,WeatherDisplay:10.37,2013-01-30 07:18:00,
2013-01-30 07:23:00,40.3,37.0,29.14,NW,316,2.3,2.3,88,0.02,-RA,OVC,0.02,0.0,WeatherDisplay:10.37,2013-01-30 07:23:00,
2013-01-30 07:28:00,40.4,37.1,29.14,North,359,5.8,5.8,88,0.02,-RA,OVC,0.02,0.0,WeatherDisplay:10.37,2013-01-30 07:28:00,
2013-01-30 07:33:00,40.7,37.4,29.14,NNW,340,3.5,3.5,88,0.02,-RA,OVC,0.02,0.0,WeatherDisplay:10.37,2013-01-30 07:33:00,
2013-01-30 07:38:00,40.9,37.6,29.15,NNW,332,3.5,3.5,88,0.02,-RA,OVC,0.02,0.0,WeatherDisplay:10.37,2013-01-30 07:38:00,
2013-01-30 07:43:00,41.2,37.9,29.15,NNE,20,5.0,5.0,88,0.02,-RA,OVC,0.02,0.0,WeatherDisplay:10.37,2013-01-30 07:43:00,
2013-01-30 07:48:00,41.4,37.8,29.15,NE,49,4.6,4.6,87,0.02,-RA,OVC,0.02,0.0,WeatherDisplay:10.37,2013-01-30 07:48:00,
2013-01-30 07:53:00,41.3,37.7,29.15,North,360,3.5,3.5,87,0.02,-RA,OVC,0.02,0.0,WeatherDisplay:10.37,2013-01-30 07:53:00,
2013-01-30 07:58:00,41.1,37.5,29.15,North,352,4.6,4.6,87,0.02,-RA,OVC,0.03,0.0,WeatherDisplay:10.37,2013-01-30 07:58:00,
2013-01-30 08:04:00,40.9,37.3,29.16,North,359,3.5,3.5,87,0.02,RA,OVC,0.03,0.0,WeatherDisplay:10.37,2013-01-30 08:04:00,
2013-01-30 08:08:00,40.6,37.3,29.16,NNW,343,3.5,3.5,88,0.02,RA,OVC,0.03,0.0,WeatherDisplay:10.37,2013-01-30 08:08:00,
2013-01-30 08:13:00,40.4,37.1,29.16,WSW,252,2.3,2.3,88,0.02,BKN,OVC,0.03,0.0,WeatherDisplay:10.37,2013-01-30 08:13:00,
2013-01-30 08:19:00,40.4,37.4,29.16,NNE,12,3.5,3.5,89,0.02,BKN,OVC,0.03,0.0,WeatherDisplay:10.37,2013-01-30 08:19:00,
2013-01-30 08:24:00,40.5,37.5,29.16,NNW,346,3.5,3.5,89,0.02,BKN,OVC,0.03,0.0,WeatherDisplay:10.37,2013-01-30 08:24:00,
2013-01-30 08:29:00,40.7,37.4,29.16,NW,323,3.5,3.5,88,0.02,BKN,OVC,0.03,0.0,WeatherDisplay:10.37,2013-01-30 08:29:00,
2013-01-30 08:34:00,40.7,37.1,29.17,NNW,344,4.0,4.0,87,0.02,-RA,OVC,0.03,0.0,WeatherDisplay:10.37,2013-01-30 08:34:00,
2013-01-30 08:39:00,40.5,36.3,29.17,NNE,12,5.8,5.8,85,0.02,-RA,OVC,0.03,0.0,WeatherDisplay:10.37,2013-01-30 08:39:00,
2013-01-30 08:44:00,40.0,35.9,29.16,SE,136,4.6,4.6,85,0.02,-RA,OVC,0.03,0.0,WeatherDisplay:10.37,2013-01-30 08:44:00,
2013-01-30 08:49:00,39.7,35.9,29.16,NW,309,4.6,4.6,86,0.02,-RA,OVC,0.03,0.0,WeatherDisplay:10.37,2013-01-30 08:49:00,
2013-01-30 08:54:00,39.6,36.3,29.16,NNW,328,1.2,1.2,88,0.01,-RA,OVC,0.03,0.0,WeatherDisplay:10.37,2013-01-30 08:54:00,
2013-01-30 08:59:00,39.5,36.2,29.16,WNW,294,4.6,4.6,88,0.00,-RA,OVC,0.03,0.0,WeatherDisplay:10.37,2013-01-30 08:59:00,
2013-01-30 09:04:00,39.9,36.9,29.17,WSW,248,8.1,8.1,89,0.01,RA,OVC,0.04,0.0,WeatherDisplay:10.37,2013-01-30 09:04:00,
2013-01-30 09:09:00,39.7,36.1,29.17,WNW,285,8.1,8.1,87,0.03,RA,OVC,0.06,0.0,WeatherDisplay:10.37,2013-01-30 09:09:00,
2013-01-30 09:14:00,39.1,35.6,29.18,NW,307,3.5,3.5,87,0.06,RA,OVC,0.09,0.0,WeatherDisplay:10.37,2013-01-30 09:14:00,
2013-01-30 09:19:00,38.6,35.6,29.18,NW,325,3.5,3.5,89,0.07,RA,OVC,0.11,0.0,WeatherDisplay:10.37,2013-01-30 09:19:00,
2013-01-30 09:24:00,38.3,35.6,29.18,ESE,104,2.3,2.3,90,0.09,RA,OVC,0.13,0.0,WeatherDisplay:10.37,2013-01-30 09:24:00,
2013-01-30 09:29:00,38.2,35.5,29.17,WNW,298,4.6,4.6,90,0.10,RA,OVC,0.13,0.0,WeatherDisplay:10.37,2013-01-30 09:29:00,
2013-01-30 09:34:00,38.2,35.5,29.16,SW,226,3.5,3.5,90,0.11,-RA,OVC,0.14,0.0,WeatherDisplay:10.37,2013-01-30 09:34:00,
2013-01-30 09:39:00,38.2,35.5,29.17,NNW,327,2.3,2.3,90,0.11,-RA,OVC,0.14,0.0,WeatherDisplay:10.37,2013-01-30 09:39:00,
2013-01-30 09:44:00,38.1,35.4,29.17,North,9,4.6,4.6,90,0.11,-RA,OVC,0.14,0.0,WeatherDisplay:10.37,2013-01-30 09:44:00,
2013-01-30 09:49:00,38.1,35.7,29.17,NW,314,3.0,3.0,91,0.11,-RA,OVC,0.14,0.0,WeatherDisplay:10.37,2013-01-30 09:49:00,
2013-01-30 09:54:00,38.3,35.9,29.17,NNW,345,1.2,1.2,91,0.11,-RA,OVC,0.14,0.0,WeatherDisplay:10.37,2013-01-30 09:54:00,
2013-01-30 09:59:00,38.7,36.3,29.17,NNW,331,3.5,3.5,91,0.11,-RA,OVC,0.14,0.0,WeatherDisplay:10.37,2013-01-30 09:59:00,
2013-01-30 10:04:00,39.1,36.7,29.18,NNW,340,2.3,2.3,91,0.10,-RA,OVC,0.14,0.0,WeatherDisplay:10.37,2013-01-30 10:04:00,
2013-01-30 10:09:00,39.3,36.9,29.19,NW,315,1.2,1.2,91,0.08,-RA,OVC,0.14,0.0,WeatherDisplay:10.37,2013-01-30 10:09:00,
2013-01-30 10:14:00,39.3,36.9,29.19,NNE,13,0.0,0.0,91,0.06,-RA,OVC,0.14,0.0,WeatherDisplay:10.37,2013-01-30 10:14:00,
2013-01-30 10:19:00,39.5,36.8,29.19,NNE,20,3.5,3.5,90,0.04,-RA,OVC,0.14,0.0,WeatherDisplay:10.37,2013-01-30 10:19:00,
2013-01-30 10:24:00,40.0,37.3,29.19,NE,37,3.5,3.5,90,0.02,-RA,OVC,0.14,0.0,WeatherDisplay:10.37,2013-01-30 10:24:00,
2013-01-30 10:29:00,40.4,37.7,29.18,NNE,19,1.2,1.2,90,0.01,-RA,OVC,0.14,0.0,WeatherDisplay:10.37,2013-01-30 10:29:00,
2013-01-30 10:34:00,41.0,38.3,29.18,NE,40,3.5,3.5,90,0.00,-RA,OVC,0.14,0.0,WeatherDisplay:10.37,2013-01-30 10:34:00,
2013-01-30 10:39:00,41.3,38.3,29.18,NNW,335,3.0,3.0,89,0.00,-RA,OVC,0.14,0.0,WeatherDisplay:10.37,2013-01-30 10:39:00,
2013-01-30 10:44:00,41.4,38.4,29.18,NNW,345,4.0,4.0,89,0.00,-RA,OVC,0.14,0.0,WeatherDisplay:10.37,2013-01-30 10:44:00,
2013-01-30 10:49:00,41.5,38.2,29.18,NE,40,5.8,5.8,88,0.00,-RA,OVC,0.14,0.0,WeatherDisplay:10.37,2013-01-30 10:49:00,
2013-01-30 10:54:00,41.5,38.2,29.18,North,1,4.6,4.6,88,0.00,-RA,OVC,0.14,0.0,WeatherDisplay:10.37,2013-01-30 10:54:00,
2013-01-30 10:59:00,41.6,38.3,29.18,NW,317,2.3,2.3,88,0.00,-RA,OVC,0.14,0.0,WeatherDisplay:10.37,2013-01-30 10:59:00,
2013-01-30 11:04:00,42.0,39.0,29.19,North,358,2.3,2.3,89,0.00,BKN,OVC,0.14,0.0,WeatherDisplay:10.37,2013-01-30 11:04:00,
2013-01-30 11:09:00,42.3,38.7,29.19,West,259,2.3,2.3,87,0.00,BKN,OVC,0.14,0.0,WeatherDisplay:10.37,2013-01-30 11:09:00,
2013-01-30 11:14:00,42.3,38.4,29.19,SE,136,5.8,5.8,86,0.00,BKN,OVC,0.14,0.0,WeatherDisplay:10.37,2013-01-30 11:14:00,
2013-01-30 11:19:00,42.3,38.4,29.20,NNE,26,2.3,2.3,86,0.00,BKN,OVC,0.14,0.0,WeatherDisplay:10.37,2013-01-30 11:19:00,
2013-01-30 11:24:00,42.3,38.4,29.20,North,359,2.3,2.3,86,0.00,BKN,OVC,0.14,0.0,WeatherDisplay:10.37,2013-01-30 11:24:00,
2013-01-30 11:29:00,42.4,38.2,29.20,West,275,3.0,3.0,85,0.00,BKN,OVC,0.14,0.0,WeatherDisplay:10.37,2013-01-30 11:29:00,
2013-01-30 11:34:00,42.4,38.2,29.20,WSW,250,1.2,1.2,85,0.00,SCT,OVC,0.14,0.0,WeatherDisplay:10.37,2013-01-30 11:34:00,
2013-01-30 11:39:00,42.4,38.2,29.21,NNE,33,2.3,2.3,85,0.00,SCT,OVC,0.14,0.0,WeatherDisplay:10.37,2013-01-30 11:39:00,
2013-01-30 11:44:00,42.4,37.9,29.21,North,1,3.5,3.5,84,0.00,SCT,OVC,0.14,0.0,WeatherDisplay:10.37,2013-01-30 11:44:00,
2013-01-30 11:49:00,42.3,37.8,29.21,SW,218,2.3,2.3,84,0.00,SCT,OVC,0.14,0.0,WeatherDisplay:10.37,2013-01-30 11:49:00,
2013-01-30 11:54:00,42.3,37.5,29.21,NNW,347,2.3,2.3,83,0.00,SCT,OVC,0.14,0.0,WeatherDisplay:10.37,2013-01-30 11:54:00,
2013-01-30 11:59:00,42.3,37.8,29.21,ENE,65,3.5,3.5,84,0.00,SCT,OVC,0.14,0.0,WeatherDisplay:10.37,2013-01-30 11:59:00,
2013-01-30 12:04:00,42.5,37.7,29.21,ENE,59,3.5,3.5,83,0.00,SCT,OVC,0.14,0.0,WeatherDisplay:10.37,2013-01-30 12:04:00,
2013-01-30 12:09:00,42.7,37.9,29.21,SE,146,3.5,3.5,83,0.00,SCT,OVC,0.14,0.0,WeatherDisplay:10.37,2013-01-30 12:09:00,
2013-01-30 12:14:00,42.8,38.0,29.21,NE,52,3.5,3.5,83,0.00,SCT,OVC,0.14,0.0,WeatherDisplay:10.37,2013-01-30 12:14:00,
2013-01-30 12:19:00,42.7,37.9,29.22,ENE,58,3.5,3.5,83,0.00,SCT,OVC,0.14,0.0,WeatherDisplay:10.37,2013-01-30 12:19:00,
2013-01-30 12:24:00,42.6,37.8,29.22,North,354,3.5,3.5,83,0.00,SCT,OVC,0.14,0.0,WeatherDisplay:10.37,2013-01-30 12:24:00,
2013-01-30 12:29:00,42.8,38.0,29.22,West,278,3.5,3.5,83,0.00,SCT,OVC,0.14,0.0,WeatherDisplay:10.37,2013-01-30 12:29:00,
2013-01-30 12:34:00,43.2,38.4,29.21,North,5,4.6,4.6,83,0.00,SCT,OVC,0.14,0.0,WeatherDisplay:10.37,2013-01-30 12:34:00,
2013-01-30 12:39:00,43.8,38.7,29.22,NW,324,3.5,3.5,82,0.00,SCT,OVC,0.14,0.0,WeatherDisplay:10.37,2013-01-30 12:39:00,
2013-01-30 12:44:00,44.3,38.8,29.23,North,353,3.5,3.5,81,0.00,SCT,OVC,0.14,0.0,WeatherDisplay:10.37,2013-01-30 12:44:00,
2013-01-30 12:49:00,44.0,38.2,29.23,WNW,300,11.5,11.5,80,0.00,SCT,OVC,0.14,0.0,WeatherDisplay:10.37,2013-01-30 12:49:00,
2013-01-30 12:54:00,43.3,38.5,29.23,NNW,333,5.8,5.8,83,0.00,SCT,OVC,0.14,0.0,WeatherDisplay:10.37,2013-01-30 12:54:00,
2013-01-30 12:59:00,42.9,38.4,29.23,NNE,22,4.6,4.6,84,0.00,SCT,OVC,0.14,0.0,WeatherDisplay:10.37,2013-01-30 12:59:00,
2013-01-30 13:04:00,42.6,38.4,29.23,North,1,4.6,4.6,85,0.00,SCT,OVC,0.14,0.0,WeatherDisplay:10.37,2013-01-30 13:04:00,
2013-01-30 13:09:00,43.0,38.8,29.22,NE,36,4.0,4.0,85,0.00,SCT,OVC,0.14,0.0,WeatherDisplay:10.37,2013-01-30 13:09:00,
2013-01-30 13:14:00,43.2,38.7,29.22,NNE,20,3.5,3.5,84,0.00,SCT,OVC,0.14,0.0,WeatherDisplay:10.37,2013-01-30 13:14:00,
2013-01-30 13:19:00,43.6,38.5,29.22,North,8,3.5,3.5,82,0.00,SCT,OVC,0.14,0.0,WeatherDisplay:10.37,2013-01-30 13:19:00,
2013-01-30 13:25:00,44.0,38.9,29.23,NNE,30,3.5,3.5,82,0.00,SCT,OVC,0.14,0.0,WeatherDisplay:10.37,2013-01-30 13:25:00,
2013-01-30 13:30:00,44.5,39.3,29.23,North,6,3.5,3.5,82,0.00,SCT,OVC,0.14,0.0,WeatherDisplay:10.37,2013-01-30 13:30:00,
2013-01-30 13:35:00,45.0,39.5,29.23,NW,321,3.5,3.5,81,0.00,SCT,OVC,0.14,0.0,WeatherDisplay:10.37,2013-01-30 13:35:00,
2013-01-30 13:40:00,45.3,39.2,29.23,NE,53,3.5,3.5,79,0.00,SCT,OVC,0.14,0.0,WeatherDisplay:10.37,2013-01-30 13:40:00,
2013-01-30 13:45:00,45.5,38.7,29.24,NNE,16,2.0,4.0,77,0.00,SCT,OVC,0.14,0.0,WeatherDisplay:10.37,2013-01-30 13:45:00,
2013-01-30 13:50:00,45.9,39.1,29.24,NNE,25,3.5,3.5,77,0.00,SCT,OVC,0.14,0.0,WeatherDisplay:10.37,2013-01-30 13:50:00,
2013-01-30 13:55:00,46.3,38.1,29.25,ESE,122,10.4,10.4,73,0.00,SCT,OVC,0.14,0.0,WeatherDisplay:10.37,2013-01-30 13:55:00,
2013-01-30 14:00:00,46.6,37.7,29.24,NNW,348,15.0,15.0,71,0.00,SCT,OVC,0.14,0.0,WeatherDisplay:10.37,2013-01-30 14:00:00,
2013-01-30 14:05:00,46.6,37.3,29.25,NE,51,13.8,13.8,70,0.00,SCT,OVC,0.14,0.0,WeatherDisplay:10.37,2013-01-30 14:05:00,
2013-01-30 14:10:00,46.5,37.6,29.25,SW,221,8.1,8.1,71,0.00,SCT,OVC,0.14,0.0,WeatherDisplay:10.37,2013-01-30 14:10:00,
2013-01-30 14:15:00,46.6,37.3,29.25,SE,127,9.2,9.2,70,0.00,SCT,OVC,0.14,0.0,WeatherDisplay:10.37,2013-01-30 14:15:00,
2013-01-30 14:20:00,46.7,36.7,29.26,North,358,11.5,11.5,68,0.00,SCT,OVC,0.14,0.0,WeatherDisplay:10.37,2013-01-30 14:20:00,
2013-01-30 14:25:00,46.8,36.4,29.26,North,11,5.8,5.8,67,0.00,SCT,OVC,0.14,0.0,WeatherDisplay:10.37,2013-01-30 14:25:00,
2013-01-30 14:30:00,46.9,35.4,29.26,NW,324,5.0,12.0,64,0.00,SCT,OVC,0.14,0.0,WeatherDisplay:10.37,2013-01-30 14:30:00,
2013-01-30 14:35:00,46.9,35.7,29.26,West,278,5.8,5.8,65,0.00,SCT,OVC,0.14,0.0,WeatherDisplay:10.37,2013-01-30 14:35:00,
2013-01-30 14:40:00,46.7,35.9,29.27,NE,51,5.8,5.8,66,0.00,SCT,OVC,0.14,0.0,WeatherDisplay:10.37,2013-01-30 14:40:00,
2013-01-30 14:45:00,46.8,34.9,29.27,NW,309,7.0,7.8,63,0.00,SCT,OVC,0.14,0.0,WeatherDisplay:10.37,2013-01-30 14:45:00,
2013-01-30 14:50:00,46.9,36.1,29.27,NNW,336,7.0,7.0,66,0.00,FEW,OVC,0.14,0.0,WeatherDisplay:10.37,2013-01-30 14:50:00,
2013-01-30 14:55:00,46.7,36.3,29.28,NNE,19,8.1,8.1,67,0.00,FEW,OVC,0.14,0.0,WeatherDisplay:10.37,2013-01-30 14:55:00,
2013-01-30 15:00:00,46.4,36.4,29.29,NW,309,4.0,4.0,68,0.00,FEW,OVC,0.14,0.0,WeatherDisplay:10.37,2013-01-30 15:00:00,
2013-01-30 15:05:00,46.4,36.0,29.30,NNW,332,6.9,6.9,67,0.00,SCT,OVC,0.14,0.0,WeatherDisplay:10.37,2013-01-30 15:05:00,
2013-01-30 15:10:00,46.4,35.7,29.30,WNW,300,8.1,8.1,66,0.00,SCT,OVC,0.14,0.0,WeatherDisplay:10.37,2013-01-30 15:10:00,
2013-01-30 15:15:00,46.1,36.1,29.30,North,4,6.0,6.0,68,0.00,SCT,OVC,0.14,0.0,WeatherDisplay:10.37,2013-01-30 15:15:00,
2013-01-30 15:20:00,45.9,35.9,29.30,NNE,29,5.0,5.0,68,0.00,SCT,OVC,0.14,0.0,WeatherDisplay:10.37,2013-01-30 15:20:00,
2013-01-30 15:25:00,45.9,35.9,29.30,NNE,20,8.1,8.1,68,0.00,SCT,OVC,0.14,0.0,WeatherDisplay:10.37,2013-01-30 15:25:00,
2013-01-30 15:30:00,45.9,35.6,29.31,NNW,336,6.9,6.9,67,0.00,SCT,OVC,0.14,0.0,WeatherDisplay:10.37,2013-01-30 15:30:00,
2013-01-30 15:35:00,45.9,35.9,29.31,WSW,242,4.0,4.0,68,0.00,SCT,OVC,0.14,0.0,WeatherDisplay:10.37,2013-01-30 15:35:00,
2013-01-30 15:40:00,46.0,34.9,29.31,SE,136,8.1,8.1,65,0.00,SCT,OVC,0.14,0.0,WeatherDisplay:10.37,2013-01-30 15:40:00,
2013-01-30 15:45:00,46.1,34.6,29.32,North,358,9.2,9.2,64,0.00,SCT,OVC,0.14,0.0,WeatherDisplay:10.37,2013-01-30 15:45:00,
2013-01-30 15:50:00,46.2,34.7,29.33,NW,316,7.0,7.0,64,0.00,SCT,OVC,0.14,0.0,WeatherDisplay:10.37,2013-01-30 15:50:00,
2013-01-30 15:55:00,46.2,34.3,29.33,West,266,11.0,11.0,63,0.00,SCT,OVC,0.14,0.0,WeatherDisplay:10.37,2013-01-30 15:55:00,
2013-01-30 16:00:00,46.2,34.7,29.34,NE,43,12.7,12.7,64,0.00,SCT,OVC,0.14,0.0,WeatherDisplay:10.37,2013-01-30 16:00:00,
2013-01-30 16:05:00,46.1,34.2,29.34,NNE,23,11.5,11.5,63,0.00,SCT,OVC,0.14,0.0,WeatherDisplay:10.37,2013-01-30 16:05:00,
2013-01-30 16:10:00,46.0,34.5,29.35,NE,37,11.5,11.5,64,0.00,SCT,OVC,0.14,0.0,WeatherDisplay:10.37,2013-01-30 16:10:00,
2013-01-30 16:15:00,45.7,34.6,29.35,West,280,10.4,10.4,65,0.00,SCT,OVC,0.14,0.0,WeatherDisplay:10.37,2013-01-30 16:15:00,
2013-01-30 16:20:00,45.6,34.1,29.35,NNW,330,10.4,10.4,64,0.00,SCT,OVC,0.14,0.0,WeatherDisplay:10.37,2013-01-30 16:20:00,
2013-01-30 16:25:00,45.6,34.1,29.36,WNW,300,10.4,10.4,64,0.00,SCT,OVC,0.14,0.0,WeatherDisplay:10.37,2013-01-30 16:25:00,
2013-01-30 16:30:00,45.7,33.8,29.36,SE,127,10.4,10.4,63,0.00,SCT,OVC,0.14,0.0,WeatherDisplay:10.37,2013-01-30 16:30:00,
2013-01-30 16:35:00,45.7,33.4,29.36,South,177,12.7,12.7,62,0.00,SCT,OVC,0.14,0.0,WeatherDisplay:10.37,2013-01-30 16:35:00,
2013-01-30 16:40:00,45.7,34.2,29.37,SSE,167,11.5,11.5,64,0.00,SCT,OVC,0.14,0.0,WeatherDisplay:10.37,2013-01-30 16:40:00,
2013-01-30 16:45:00,45.6,33.3,29.37,NNE,19,9.2,9.2,62,0.00,SCT,OVC,0.14,0.0,WeatherDisplay:10.37,2013-01-30 16:45:00,
2013-01-30 16:50:00,45.7,33.4,29.37,SSE,165,10.4,10.4,62,0.00,SCT,OVC,0.14,0.0,WeatherDisplay:10.37,2013-01-30 16:50:00,
2013-01-30 16:55:00,45.7,33.0,29.38,WSW,257,8.1,8.1,61,0.00,SCT,OVC,0.14,0.0,WeatherDisplay:10.37,2013-01-30 16:55:00,
2013-01-30 17:00:00,45.7,33.0,29.39,NW,314,11.5,11.5,61,0.00,SCT,OVC,0.14,0.0,WeatherDisplay:10.37,2013-01-30 17:00:00,
2013-01-30 17:05:00,45.7,33.4,29.39,NW,325,6.9,6.9,62,0.00,SCT,OVC,0.14,0.0,WeatherDisplay:10.37,2013-01-30 17:05:00,
2013-01-30 17:10:00,45.5,33.6,29.40,NW,312,6.9,6.9,63,0.00,SCT,OVC,0.14,0.0,WeatherDisplay:10.37,2013-01-30 17:10:00,
2013-01-30 17:15:00,45.4,33.9,29.40,NW,308,5.8,5.8,64,0.00,SCT,OVC,0.14,0.0,WeatherDisplay:10.37,2013-01-30 17:15:00,
2013-01-30 17:20:00,45.5,34.0,29.40,NNW,347,6.9,6.9,64,0.00,SCT,OVC,0.14,0.0,WeatherDisplay:10.37,2013-01-30 17:20:00,
2013-01-30 17:25:00,45.4,33.9,29.40,West,268,9.2,9.2,64,0.00,SCT,OVC,0.14,0.0,WeatherDisplay:10.37,2013-01-30 17:25:00,
2013-01-30 17:30:00,45.4,33.9,29.40,NNW,335,5.0,5.0,64,0.00,SCT,OVC,0.14,0.0,WeatherDisplay:10.37,2013-01-30 17:30:00,
2013-01-30 17:35:00,45.5,34.0,29.41,NW,315,5.8,5.8,64,0.00,SCT,OVC,0.14,0.0,WeatherDisplay:10.37,2013-01-30 17:35:00,
2013-01-30 17:40:00,45.4,33.9,29.41,NW,316,9.2,9.2,64,0.00,SCT,OVC,0.14,0.0,WeatherDisplay:10.37,2013-01-30 17:40:00,
2013-01-30 17:45:00,45.4,34.7,29.42,NNW,338,10.4,10.4,66,0.00,SCT,OVC,0.14,0.0,WeatherDisplay:10.37,2013-01-30 17:45:00,
2013-01-30 17:50:00,44.7,36.2,29.43,NNW,327,13.8,13.8,72,0.00,SCT,OVC,0.14,0.0,WeatherDisplay:10.37,2013-01-30 17:50:00,
2013-01-30 17:55:00,44.2,36.4,29.43,NW,311,11.5,11.5,74,0.00,SCT,OVC,0.14,0.0,WeatherDisplay:10.37,2013-01-30 17:55:00,
2013-01-30 18:00:00,44.2,36.1,29.43,NNW,329,11.5,11.5,73,0.00,SCT,OVC,0.14,0.0,WeatherDisplay:10.37,2013-01-30 18:00:00,
2013-01-30 18:05:00,44.2,36.1,29.44,NNW,348,9.2,9.2,73,0.00,FEW,OVC,0.14,0.0,WeatherDisplay:10.37,2013-01-30 18:05:00,
2013-01-30 18:10:00,44.1,36.0,29.44,NNW,328,10.4,10.4,73,0.00,FEW,OVC,0.14,0.0,WeatherDisplay:10.37,2013-01-30 18:10:00,
2013-01-30 18:15:00,43.8,36.0,29.45,West,271,6.9,6.9,74,0.00,FEW,OVC,0.14,0.0,WeatherDisplay:10.37,2013-01-30 18:15:00,
2013-01-30 18:20:00,43.6,35.9,29.45,South,188,5.8,5.8,74,0.00,FEW,OVC,0.14,0.0,WeatherDisplay:10.37,2013-01-30 18:20:00,
2013-01-30 18:25:00,43.5,35.8,29.45,NW,314,8.1,8.1,74,0.00,FEW,OVC,0.14,0.0,WeatherDisplay:10.37,2013-01-30 18:25:00,
2013-01-30 18:30:00,43.5,35.4,29.46,WNW,302,6.0,6.0,73,0.00,FEW,OVC,0.14,0.0,WeatherDisplay:10.37,2013-01-30 18:30:00,
2013-01-30 18:35:00,43.7,34.9,29.46,NW,311,8.1,8.1,71,0.00,CLR,OVC,0.14,0.0,WeatherDisplay:10.37,2013-01-30 18:35:00,
2013-01-30 18:41:00,43.9,34.7,29.47,NNE,12,10.4,10.4,70,0.00,CLR,OVC,0.14,0.0,WeatherDisplay:10.37,2013-01-30 18:41:00,
2013-01-30 18:46:00,44.3,34.4,29.47,NW,316,8.1,8.1,68,0.00,CLR,OVC,0.14,0.0,WeatherDisplay:10.37,2013-01-30 18:46:00,
2013-01-30 18:51:00,44.3,34.8,29.47,WSW,252,9.0,9.0,69,0.00,CLR,OVC,0.14,0.0,WeatherDisplay:10.37,2013-01-30 18:51:00,
2013-01-30 18:56:00,44.6,33.9,29.48,NW,322,4.6,4.6,66,0.00,CLR,OVC,0.14,0.0,WeatherDisplay:10.37,2013-01-30 18:56:00,
2013-01-30 19:01:00,44.6,34.3,29.48,NNE,20,5.8,5.8,67,0.00,FEW,OVC,0.14,0.0,WeatherDisplay:10.37,2013-01-30 19:01:00,
2013-01-30 19:06:00,44.5,34.6,29.48,North,357,5.8,5.8,68,0.00,FEW,OVC,0.14,0.0,WeatherDisplay:10.37,2013-01-30 19:06:00,
2013-01-30 19:11:00,44.3,34.4,29.49,NNW,335,8.1,8.1,68,0.00,FEW,OVC,0.14,0.0,WeatherDisplay:10.37,2013-01-30 19:11:00,
2013-01-30 19:16:00,44.4,35.6,29.50,NW,309,17.3,17.3,71,0.00,FEW,OVC,0.14,0.0,WeatherDisplay:10.37,2013-01-30 19:16:00,
2013-01-30 19:21:00,43.5,36.8,29.51,West,269,16.0,16.0,77,0.00,FEW,OVC,0.14,0.0,WeatherDisplay:10.37,2013-01-30 19:21:00,
2013-01-30 19:26:00,42.5,37.1,29.51,WNW,295,11.5,11.5,81,0.00,FEW,OVC,0.14,0.0,WeatherDisplay:10.37,2013-01-30 19:26:00,
2013-01-30 19:31:00,42.0,37.2,29.50,NW,319,11.5,11.5,83,0.00,SCT,OVC,0.14,0.0,WeatherDisplay:10.37,2013-01-30 19:31:00,
2013-01-30 19:36:00,41.8,37.0,29.51,North,4,4.6,4.6,83,0.00,SCT,OVC,0.14,0.0,WeatherDisplay:10.37,2013-01-30 19:36:00,
2013-01-30 19:41:00,41.5,37.0,29.52,NNE,13,5.0,5.0,84,0.00,SCT,OVC,0.14,0.0,WeatherDisplay:10.37,2013-01-30 19:41:00,
2013-01-30 19:46:00,41.5,37.0,29.52,WNW,303,4.6,4.6,84,0.00,SCT,OVC,0.14,0.0,WeatherDisplay:10.37,2013-01-30 19:46:00,
2013-01-30 19:51:00,41.5,37.0,29.53,NW,321,4.6,4.6,84,0.00,SCT,OVC,0.14,0.0,WeatherDisplay:10.37,2013-01-30 19:51:00,
2013-01-30 19:56:00,41.3,37.1,29.53,NW,317,3.5,3.5,85,0.00,SCT,OVC,0.14,0.0,WeatherDisplay:10.37,2013-01-30 19:56:00,
2013-01-30 20:01:00,41.3,36.8,29.53,WNW,291,6.9,6.9,84,0.00,SCT,OVC,0.14,0.0,WeatherDisplay:10.37,2013-01-30 20:01:00,
2013-01-30 20:06:00,41.9,37.1,29.54,NW,309,8.1,8.1,83,0.00,SCT,OVC,0.14,0.0,WeatherDisplay:10.37,2013-01-30 20:06:00,
2013-01-30 20:11:00,41.9,37.1,29.54,WSW,238,5.0,5.0,83,0.00,SCT,OVC,0.14,0.0,WeatherDisplay:10.37,2013-01-30 20:11:00,
2013-01-30 20:16:00,41.9,36.8,29.54,WSW,253,4.6,4.6,82,0.00,SCT,OVC,0.14,0.0,WeatherDisplay:10.37,2013-01-30 20:16:00,
2013-01-30 20:21:00,42.0,36.9,29.55,WNW,291,6.9,6.9,82,0.00,SCT,OVC,0.14,0.0,WeatherDisplay:10.37,2013-01-30 20:21:00,
2013-01-30 20:26:00,41.9,36.8,29.55,NW,310,4.6,4.6,82,0.00,SCT,OVC,0.14,0.0,WeatherDisplay:10.37,2013-01-30 20:26:00,
2013-01-30 20:31:00,41.7,36.9,29.56,West,270,5.8,5.8,83,0.00,SCT,OVC,0.14,0.0,WeatherDisplay:10.37,2013-01-30 20:31:00,
2013-01-30 20:36:00,41.5,37.0,29.56,North,354,3.5,3.5,84,0.00,SCT,OVC,0.14,0.0,WeatherDisplay:10.37,2013-01-30 20:36:00,
2013-01-30 20:41:00,41.5,37.0,29.57,NW,317,3.5,3.5,84,0.00,SCT,OVC,0.14,0.0,WeatherDisplay:10.37,2013-01-30 20:41:00,
2013-01-30 20:46:00,41.4,36.9,29.57,WNW,293,3.0,3.0,84,0.00,SCT,OVC,0.14,0.0,WeatherDisplay:10.37,2013-01-30 20:46:00,
2013-01-30 20:51:00,41.5,37.3,29.58,WNW,300,1.2,1.2,85,0.00,SCT,OVC,0.14,0.0,WeatherDisplay:10.37,2013-01-30 20:51:00,
2013-01-30 20:56:00,41.6,37.1,29.58,West,281,2.3,2.3,84,0.00,SCT,OVC,0.14,0.0,WeatherDisplay:10.37,2013-01-30 20:56:00,
2013-01-30 21:01:00,41.7,37.2,29.58,NW,314,2.3,2.3,84,0.00,SCT,OVC,0.14,0.0,WeatherDisplay:10.37,2013-01-30 21:01:00,
2013-01-30 21:06:00,41.9,37.1,29.59,NW,323,3.5,3.5,83,0.00,SCT,OVC,0.14,0.0,WeatherDisplay:10.37,2013-01-30 21:06:00,
2013-01-30 21:11:00,42.1,37.3,29.59,WNW,287,3.5,3.5,83,0.00,SCT,OVC,0.14,0.0,WeatherDisplay:10.37,2013-01-30 21:11:00,
2013-01-30 21:16:00,42.1,37.3,29.59,WNW,296,1.2,1.2,83,0.00,SCT,OVC,0.14,0.0,WeatherDisplay:10.37,2013-01-30 21:16:00,
2013-01-30 21:21:00,41.9,37.1,29.59,NW,317,1.2,1.2,83,0.00,SCT,OVC,0.14,0.0,WeatherDisplay:10.37,2013-01-30 21:21:00,
2013-01-30 21:26:00,41.9,36.8,29.59,NW,309,1.2,1.2,82,0.00,SCT,OVC,0.14,0.0,WeatherDisplay:10.37,2013-01-30 21:26:00,
2013-01-30 21:31:00,42.0,36.6,29.59,NW,307,1.2,1.2,81,0.00,BKN,OVC,0.14,0.0,WeatherDisplay:10.37,2013-01-30 21:31:00,
2013-01-30 21:36:00,42.1,36.7,29.60,NW,309,1.2,1.2,81,0.00,BKN,OVC,0.14,0.0,WeatherDisplay:10.37,2013-01-30 21:36:00,
2013-01-30 21:41:00,42.1,36.4,29.60,WNW,294,1.2,1.2,80,0.00,BKN,OVC,0.14,0.0,WeatherDisplay:10.37,2013-01-30 21:41:00,
2013-01-30 21:46:00,42.0,36.3,29.60,WNW,302,1.2,1.2,80,0.00,BKN,OVC,0.14,0.0,WeatherDisplay:10.37,2013-01-30 21:46:00,
2013-01-30 21:51:00,42.0,36.3,29.60,NW,319,0.0,0.0,80,0.00,BKN,OVC,0.14,0.0,WeatherDisplay:10.37,2013-01-30 21:51:00,
2013-01-30 21:56:00,41.9,36.2,29.61,ENE,77,0.0,0.0,80,0.00,BKN,OVC,0.14,0.0,WeatherDisplay:10.37,2013-01-30 21:56:00,
2013-01-30 22:01:00,41.7,36.0,29.61,North,349,1.2,0.0,80,0.00,FEW,OVC,0.14,0.0,WeatherDisplay:10.37,2013-01-30 22:01:00,
2013-01-30 22:06:00,41.7,36.0,29.62,North,349,1.2,1.2,80,0.00,FEW,OVC,0.14,0.0,WeatherDisplay:10.37,2013-01-30 22:06:00,
2013-01-30 22:11:00,41.7,36.0,29.62,NNW,346,1.2,0.0,80,0.00,FEW,OVC,0.14,0.0,WeatherDisplay:10.37,2013-01-30 22:11:00,
2013-01-30 22:16:00,41.7,36.0,29.63,NW,321,1.2,1.2,80,0.00,FEW,OVC,0.14,0.0,WeatherDisplay:10.37,2013-01-30 22:16:00,
2013-01-30 22:22:00,42.0,36.0,29.62,WNW,303,2.3,2.3,79,0.00,FEW,OVC,0.14,0.0,WeatherDisplay:10.37,2013-01-30 22:22:00,
2013-01-30 22:27:00,42.3,35.9,29.63,NNW,342,1.2,1.2,78,0.00,FEW,OVC,0.14,0.0,WeatherDisplay:10.37,2013-01-30 22:27:00,
2013-01-30 22:32:00,42.3,35.9,29.63,North,357,0.0,0.2,78,0.00,FEW,OVC,0.14,0.0,WeatherDisplay:10.37,2013-01-30 22:32:00,
2013-01-30 22:37:00,42.4,36.0,29.64,WSW,253,2.3,2.3,78,0.00,FEW,OVC,0.14,0.0,WeatherDisplay:10.37,2013-01-30 22:37:00,
2013-01-30 22:42:00,42.5,36.1,29.64,North,6,1.2,1.2,78,0.00,FEW,OVC,0.14,0.0,WeatherDisplay:10.37,2013-01-30 22:42:00,
2013-01-30 22:47:00,42.5,36.1,29.64,NW,318,1.2,0.0,78,0.00,FEW,OVC,0.14,0.0,WeatherDisplay:10.37,2013-01-30 22:47:00,
2013-01-30 22:52:00,42.4,36.0,29.64,SE,134,0.0,0.0,78,0.00,FEW,OVC,0.14,0.0,WeatherDisplay:10.37,2013-01-30 22:52:00,
2013-01-30 22:57:00,42.4,35.7,29.64,NW,325,2.3,2.3,77,0.00,FEW,OVC,0.14,0.0,WeatherDisplay:10.37,2013-01-30 22:57:00,
2013-01-30 23:02:00,42.3,35.6,29.64,NNW,346,1.2,0.0,77,0.00,CLR,OVC,0.14,0.0,WeatherDisplay:10.37,2013-01-30 23:02:00,
2013-01-30 23:07:00,42.1,35.4,29.63,NW,310,2.3,2.3,77,0.00,CLR,OVC,0.14,0.0,WeatherDisplay:10.37,2013-01-30 23:07:00,
2013-01-30 23:12:00,41.9,35.2,29.63,SSW,211,2.3,2.3,77,0.00,CLR,OVC,0.14,0.0,WeatherDisplay:10.37,2013-01-30 23:12:00,
2013-01-30 23:17:00,41.7,35.0,29.63,NE,52,2.3,2.3,77,0.00,CLR,OVC,0.14,0.0,WeatherDisplay:10.37,2013-01-30 23:17:00,
2013-01-30 23:22:00,41.4,35.1,29.62,NNW,335,1.2,1.2,78,0.00,CLR,OVC,0.14,0.0,WeatherDisplay:10.37,2013-01-30 23:22:00,
2013-01-30 23:27:00,41.2,35.2,29.62,North,8,1.2,1.2,79,0.00,CLR,OVC,0.14,0.0,WeatherDisplay:10.37,2013-01-30 23:27:00,
2013-01-30 23:32:00,40.8,35.1,29.62,NNW,342,0.0,0.0,80,0.00,CLR,OVC,0.14,0.0,WeatherDisplay:10.37,2013-01-30 23:32:00,
2013-01-30 23:37:00,40.7,35.3,29.62,NNE,13,1.2,1.2,81,0.00,CLR,OVC,0.14,0.0,WeatherDisplay:10.37,2013-01-30 23:37:00,
2013-01-30 23:42:00,40.6,35.2,29.62,NE,37,1.2,1.2,81,0.00,CLR,OVC,0.14,0.0,WeatherDisplay:10.37,2013-01-30 23:42:00,
2013-01-30 23:47:00,40.5,35.7,29.62,North,1,2.3,2.3,83,0.00,CLR,OVC,0.14,0.0,WeatherDisplay:10.37,2013-01-30 23:47:00,
2013-01-30 23:52:00,40.5,35.7,29.63,NW,307,2.3,2.3,83,0.00,CLR,OVC,0.14,0.0,WeatherDisplay:10.37,2013-01-30 23:52:00,
2013-01-30 23:57:00,40.7,36.2,29.62,NNW,344,2.3,2.3,84,0.00,CLR,OVC,0.14,0.0,WeatherDisplay:10.37,2013-01-30 23:57:00,